TimePST,TemperatureF,Dew PointF,Humidity,Sea Level PressureIn,VisibilityMPH,Wind Direction,Wind SpeedMPH,Gust SpeedMPH,PrecipitationIn,Events,Conditions,WindDirDegrees,DateUTC
12:53 AM,45.0,39.9,82,29.92,10.0,SSE,15.0,21.9,0.00,,Mostly Cloudy,160,2013-02-06 08:53:00
1:53 AM,46.0,39.9,79,29.94,10.0,South,9.2,19.6,N/A,,Mostly Cloudy,170,2013-02-06 09:53:00
2:16 AM,46.4,39.2,76,29.92,10.0,South,8.1,-,N/A,,Mostly Cloudy,170,2013-02-06 10:16:00
2:39 AM,44.6,39.2,81,29.93,10.0,SSE,12.7,20.7,N/A,,Overcast,160,2013-02-06 10:39:00
2:53 AM,46.0,39.9,79,29.95,10.0,SSE,11.5,18.4,N/A,,Overcast,160,2013-02-06 10:53:00
3:53 AM,45.0,39.9,82,29.96,10.0,SSE,12.7,18.4,0.00,,Overcast,160,2013-02-06 11:53:00
4:53 AM,45.0,39.0,80,29.99,10.0,SSE,10.4,-,N/A,,Overcast,160,2013-02-06 12:53:00
5:49 AM,44.6,39.2,81,29.97,10.0,South,9.2,-,N/A,,Overcast,170,2013-02-06 13:49:00
5:53 AM,45.0,39.9,82,29.99,10.0,SSE,10.4,-,N/A,,Overcast,160,2013-02-06 13:53:00
6:53 AM,44.6,39.2,81,29.98,10.0,SSE,10.4,-,N/A,,Overcast,160,2013-02-06 14:53:00
7:53 AM,44.1,39.9,85,30.00,10.0,SSE,10.4,-,N/A,,Overcast,150,2013-02-06 15:53:00
8:53 AM,45.0,39.0,80,30.02,10.0,SSE,8.1,-,N/A,,Overcast,160,2013-02-06 16:53:00
9:53 AM,46.0,37.9,73,30.01,10.0,SE,13.8,-,N/A,,Overcast,140,2013-02-06 17:53:00
10:53 AM,46.9,37.9,71,30.01,10.0,SSE,10.4,23.0,N/A,,Overcast,160,2013-02-06 18:53:00
11:53 AM,48.0,37.9,68,30.00,10.0,SE,12.7,17.3,N/A,,Overcast,130,2013-02-06 19:53:00
12:53 PM,48.9,36.0,61,29.97,10.0,SSE,12.7,23.0,N/A,,Overcast,150,2013-02-06 20:53:00
1:53 PM,48.9,36.0,61,29.95,10.0,SE,13.8,19.6,N/A,,Overcast,140,2013-02-06 21:53:00
2:53 PM,46.9,39.0,74,29.95,10.0,SE,13.8,-,0.00,Rain,Light Rain,130,2013-02-06 22:53:00
3:53 PM,46.0,39.0,76,29.94,10.0,ESE,9.2,-,0.02,Rain,Light Rain,110,2013-02-06 23:53:00
4:53 PM,46.0,37.9,73,29.94,10.0,ESE,12.7,-,0.00,,Overcast,120,2013-02-07 00:53:00
5:53 PM,45.0,39.0,80,29.92,10.0,East,6.9,-,0.00,Rain,Light Rain,100,2013-02-07 01:53:00
6:53 PM,44.1,39.0,82,29.90,10.0,ESE,4.6,-,N/A,,Overcast,110,2013-02-07 02:53:00
7:53 PM,44.6,37.4,76,29.84,10.0,ENE,4.6,-,N/A,,Overcast,70,2013-02-07 03:53:00
8:53 PM,46.0,37.0,71,29.85,10.0,ESE,12.7,-,N/A,,Overcast,120,2013-02-07 04:53:00
9:53 PM,46.0,36.0,68,29.82,10.0,East,8.1,-,N/A,,Partly Cloudy,90,2013-02-07 05:53:00
10:53 PM,44.1,37.0,76,29.81,10.0,NE,5.8,-,N/A,,Mostly Cloudy,40,2013-02-07 06:53:00
11:53 PM,44.1,37.9,79,29.79,10.0,NNE,6.9,-,N/A,,Overcast,30,2013-02-07 07:53:00